STARLINK-35559, 66095

Orbit data source: Space-Track

STARLINK-35559, 66095 is a payload satellite owned by SpaceX/Seattle (US) in LEO that was launched on Sun, 19 Oct 2025 UTC via an FALCON 9 launch vehicle from the Air Force Western Test Range (AFWTR). Payload-class satellites include a variety of spacecraft equipped with specific instruments for various scientific and technological missions. These include communications satellites like Starlink; space stations such as the ISS; scientific satellites like the Hubble; Earth observation satellites from companies like Planet Labs, Umbra, and HawkEye 360; GPS; miniature CubeSats for education and research; and military/defense satellites.

Loading next visibility...
Identifier
66095, 2025-236K
Orbit
LEO
Country
Flag of USUS
Related business
Manufacturer
SpaceX/Seattle
Mission
Operational Commercial Communications
Bus & Motor
STARLINK V2MO, Unknown motor
Mass
575 kg wet, ~530 kg dry
Launch date (UTC)
2025-10-19 (8 months ago)
Launch vehicle
FALCON 9
Launch site
Air Force Western Test Range (AFWTR)
Object type
Payload
Rocket body
Debris
Shape & HBR
Box + 2 Pan, 17.7 m
Radar Cross Section
36.964 m², Large (>1 m²)

Expand to show TLE details & history
Last TLE update: 15 hours ago

TLE from 15 hours ago
0 STARLINK-35559
1 66095U 25236K   26171.21132043  .00002696  00000-0  10309-3 0  9996
2 66095  53.1624 347.4851 0001154 109.9225 250.1900 15.30208784 38646
Epoch: 2026-06-20T05:04Z
TLE epoch observation values (Epoch: 2026-06-20T05:04:18.085Z)
Latitude
-0.00002°
Longitude
2.98053°
Altitude
476.357 km
Speed
7.629 km/s
True Right ascension
23h 09m 56s
True Declination
0° 00' 00"
Sunlit
Object was in daylight at epoch
Visualization orbit readout
Latitude
Unknown
Longitude
Unknown
Altitude
Unknown
Speed
Unknown
Apparent Right ascension
Unknown
Apparent Declination
Unknown
Sunlit
N/A
Visualization observer readout
Local Sidereal Time
07:18:50
Azimuth
Unknown
Elevation
Unknown
Doppler factor
Unknown
Orbital elements
Apogee altitude
476.236 km
Perigee altitude
474.654 km
Semi-major axis
6,853.582 km
Eccentricity
0.00012
Inclination
53.1624°
RAAN
347.4851°
Arg. of periapsis
109.9225°
True anomaly
250.17756°
Mean anomaly
250.19°
Eccentric anomaly
250.18378°
Mean motion
3.82531 °/min
Orbital period
94.11 mins
BSTAR
0.00010309
Loading maneuver chart data...
Computing Atmospheric mass density...
Loading historical data...
Loading historical data...
Loading historical data...
Loading historical data...
Loading historical data...
Loading historical data...
Loading historical data...

Documentation

Showing up to 5 results
|